Regional Weather Roundup
Issued by NWS

Home | Current Version | Previous Version | Graphics & Text | Print | Product List | Glossary On
Versions: 1 2 3 4 5 6 7 8 9 10 11 12 13 14 15 16 17 18 19 20 21 22 23 24 25 26 27 28 29 30 31 32 33 34 35 36 37 38 39 40 41 42 43 44 45 46 47 48 49 50
000
ASUS45 KTFX 231210
RWRMT
MONTANA REGIONAL WEATHER ROUNDUP
NATIONAL WEATHER SERVICE GREAT FALLS MT
600 AM MDT SAT JUL 23 2016

NOTE: "FAIR" INDICATES FEW OR NO CLOUDS BELOW 12000 FEET WITH NO
SIGNIFICANT WEATHER AND/OR OBSTRUCTIONS TO VISIBILITY.

MTZ001>007-043-231300-
WEST OF THE DIVIDE

CITY           SKY/WX    TMP DP  RH WIND       PRES   REMARKS
KALISPELL      MOCLDY    50  48  93 N7        30.13R
MISSOULA       PTCLDY    59  45  59 CALM      30.16R
BUTTE          CLEAR     48  37  65 SE8       30.23R
MULLAN PASS    CLEAR     47  41  80 SW6       30.23S
ANACONDA         N/A     55  37  50 NW7       30.21R
DEER LODGE       N/A     52  39  62 CALM      30.23R
EUREKA           N/A     50  46  87 CALM      30.12R
HAMILTON         N/A     54  43  66 CALM      30.18R
LIBBY            N/A     45  45 100 CALM      30.15R
RONAN            N/A     57  50  78 E1        30.18S
$$

MTZ008-052>055-231300-
SOUTHWEST MONTANA

CITY           SKY/WX    TMP DP  RH WIND       PRES   REMARKS
BOZEMAN        CLEAR     54  43  66 SW3       30.15S
DILLON         CLEAR     52  40  63 S9        30.18S
W YELLOWSTONE  CLEAR     39  27  60 NE3       30.25R
ENNIS          CLEAR     52  39  62 CALM      30.24R
THREE FORKS      N/A     51  31  46 CALM      30.13S
TWIN BRIDGES     N/A     57  39  51 S3        30.15R
$$

MTZ009-010-012-014-046-048-049-054-231300-
EAST SLOPES AND CENTRAL MONTANA

CITY           SKY/WX    TMP DP  RH WIND       PRES   REMARKS
CUT BANK       CLEAR     57  42  57 W23       29.97R
GREAT FALLS    CLEAR     58  41  53 SW14      30.01F
MALMSTROM AFB  CLEAR     61  42  48 SW16      30.00F
HELENA         CLEAR     63  40  42 W16G26    30.12R
CHOTEAU          N/A     59  39  47 W12G23    30.03S
$$

MTZ011-013-016-021-045-047-050-051-231300-
NORTH CENTRAL MONTANA

CITY           SKY/WX    TMP DP  RH WIND       PRES   REMARKS
HAVRE            N/A    N/A N/A N/A MISG      29.89R
LEWISTOWN      CLEAR     56  40  55 SW14      30.02R
N BAR RANCH      N/A     61  30  31 SW13G20   30.03R
CHINOOK          N/A     59  45  58 SW6       29.88S
$$

MTZ017>020-022>027-061-062-231300-
NORTHEAST MONTANA

CITY           SKY/WX    TMP DP  RH WIND       PRES   REMARKS
GLASGOW        CLOUDY    62  53  72 W16G25    29.86R
JORDAN           N/A     57  52  83 W7        29.92R
SIDNEY         CLEAR     64  62  93 W6        29.83S
WOLF POINT     CLEAR     64  59  83 SW6       29.84R
PLENTYWOOD       N/A     66  63  88 S8        29.81R
POPLAR           N/A     68  61  77 SW6       29.84R
$$

MTZ028>42-056>058-231300-
SOUTHCENTRAL AND SOUTHEAST MONTANA

CITY           SKY/WX    TMP DP  RH WIND       PRES   REMARKS
BAKER          CLEAR     61  60  97 NW5       29.84S
BILLINGS       PTCLDY    62  46  55 S7        30.03F
LIVINGSTON     CLEAR     59  38  45 W14G21    30.12S
MILES CITY     CLEAR     65  52  62 NW10      29.91R
FORSYTH          N/A     66  48  52 W7        29.94S
LAUREL           N/A     60  42  51 CALM      30.02F
ROUNDUP          N/A     57  44  62 S3        29.92R
$$

REGIONAL REPORTS...DAKOTAS

CITY           SKY/WX    TMP DP  RH WIND       PRES   REMARKS
WILLISTON      MOCLDY    67  62  84 SW7       29.82R
MINOT          TSTM      68  65  90 VRB3      29.86R FOG
DICKINSON      PTCLDY    62  60  93 E8        29.81F
BEACH            N/A     59  59 100 N3        29.88R
CROSBY           N/A     63  63 100 CALM      29.82F
WATFORD CITY     N/A    N/A N/A N/A MISG        N/A
BISMARCK       PTCLDY    69  63  81 E12       29.78F
GRAND FORKS    LGT RAIN  70  63  78 E5        29.84F
FARGO          CLOUDY    73  62  68 SE6       29.84F
BUFFALO SD       N/A     66  62  87 SW9       29.75S
RAPID CITY     CLOUDY    63  56  78 SE7       29.81F
$$

REGIONAL REPORTS...WYOMING/IDAHO/WASHINGTON

CITY           SKY/WX    TMP DP  RH WIND       PRES   REMARKS
GILLETTE       CLEAR     63  49  60 NW16      30.03R
SHERIDAN       CLEAR     64  41  42 W12       30.06S
BUFFALO WY     CLEAR     64  39  39 N18G28    30.09R
CODY           CLEAR     61  41  48 NW7       30.12R
YELLOWSTONE LA   N/A     37  27  67 CALM      30.31S
IDAHO FALLS    CLEAR     53  38  56 S5        30.16R
SALMON         CLEAR     54  41  62 SW6       30.17S
BOISE          CLEAR     57  41  55 CALM      30.14R
SPOKANE        MOCLDY    52  46  80 S6        30.15R
$$

REGIONAL REPORTS...ALBERTA

CITY           SKY/WX    TMP DP  RH WIND       PRES   REMARKS
EDMONTON       CLOUDY    61  52  72 W6        29.89S
LETHBRIDGE     PTCLDY    59  50  72 W24G31    29.96R
MEDICINE HAT   CLEAR     54  50  87 W9        29.83R
WATERTON GATE    N/A     55  43  62 SW20G32     N/A
CARDSTON         N/A     57  43  58 W13G22      N/A
MILK RIVER       N/A     55  45  67 W18G25      N/A
ONEFOUR          N/A     61  43  51 W24G35      N/A
$$

REGIONAL REPORTS...SASKATCHEWAN

CITY           SKY/WX    TMP DP  RH WIND       PRES   REMARKS
SWIFT CURRENT  CLOUDY    57  57 100 W14G21    29.77S
REGINA         LGT RAIN  64  63  94 SE15      29.72F
SASKATOON      MOCLDY    63  63 100 N9        29.75S
VAL MARIE        N/A     54  50  87 SW8         N/A
ROCKGLEN         N/A     59  57  94 W13         N/A
$$



USA.gov is the U.S. government's official web portal to all federal, state and local government web resources and services.